Regional Weather Roundup
Issued by NWS Green Bay, WI

Home | Current Version | Previous Version | Text Only | Print | Product List | Glossary On
Versions: 1 2 3 4 5 6 7 8 9 10 11 12 13 14 15 16 17 18 19 20 21 22 23 24 25 26 27 28 29 30 31 32 33 34 35 36 37 38 39 40 41 42 43 44 45 46 47 48 49 50
000
ASUS43 KGRB 041700
RWRGRB

NORTH-CENTRAL AND NORTHEAST WISCONSIN REGIONAL WEATHER ROUNDUP
NATIONAL WEATHER SERVICE GREEN BAY WI
1100 AM CST SUN DEC 04 2016

WIZ005-009-010>012-018-019-041800-
NORTH CENTRAL WISCONSIN

CITY           SKY/WX    TMP DP  RH WIND       PRES   REMARKS
IRONWOOD       LGT SNOW  30  27  88 SE8       29.92F FOG
MANITOWISH WTR NOT AVBL
ARBOR VITAE    NOT AVBL
EAGLE RIVER    NOT AVBL
LAND O LAKES   NOT AVBL
RHINELANDER    LGT SNOW  29  26  89 SE7       29.95F FOG
PHILLIPS       LGT SNOW  28  27  94 SE9       29.91F
ANTIGO         NOT AVBL
TOMAHAWK       NOT AVBL
MERRILL        NOT AVBL
$$

WIZ013-073-041800-
NORTHEAST WISCONSIN

CITY           SKY/WX    TMP DP  RH WIND       PRES   REMARKS
IRON MOUNTAIN  LGT SNOW  29  24  82 S6        30.00F
MARINETTE      MIX PCPN  32  28  85 SW7       30.07F
$$

WIZ017-030-035>037-045-041800-
CENTRAL WISCONSIN

CITY           SKY/WX    TMP DP  RH WIND       PRES   REMARKS
MEDFORD        NOT AVBL
WAUSAU         LGT SNOW  29  27  92 SE10      29.96F VSB 3/4
MOSINEE        LGT SNOW  28  28 100 SE12      29.97F VSB 1
MARSHFIELD     SNOW      30  27  88 SE13      29.94F VSB 1/4
WISC RAPIDS    SNOW      31  30  96 S8        29.99F VSB 1/2
STEVENS POINT  NOT AVBL
WAUPACA        NOT AVBL
SHAWANO        NOT AVBL
CLINTONVILLE   NOT AVBL
WAUTOMA        LGT SNOW  31  29  92 S9        30.03F FOG
$$

WIZ038-039-048-051-041800-
FOX VALLEY

CITY           SKY/WX    TMP DP  RH WIND       PRES   REMARKS
NWS GREEN BAY  LGT SNOW  32  31  96 S6        30.05F VSB 1
APPLETON       LGT SNOW  30  30 100 S9        30.02F
OSHKOSH        SNOW      31  28  89 S9        30.03F VSB 1/2
FOND DU LAC    LGT SNOW  31  27  85 SE8       30.03F VSB 3/4
$$

WIZ022-050-052-041800-
EAST CENTRAL WISCONSIN

CITY           SKY/WX    TMP DP  RH WIND       PRES   REMARKS
EPHRAIM        NOT AVBL
WASHINGTON ISL NOT AVBL
STURGEON BAY   LGT SNOW  30  28  92 S3        30.07F FOG
MANITOWOC      NOT AVBL
SHEBOYGAN      LGT SNOW  31  29  92 S7        30.06F FOG
$$

LMZ563-521-522-541>543-041800-
LAKESHORE

STATION/POSITION TIME  TEMP    WIND        PRES    VSBY  WAVE
                       AIR SEA DIR/SP/G                  HT/PER
                 (UTC) (F)     (DEG/KT/KT) (MB)    (MI)  (FT/S)
SHEBOYGAN LKSHOR 1600   33     210/  8/  9 1020.0F
KEWAUNEE LKSHORE 1630   31     220/  4/  6 1018.5F
ALGOMA MARINA    1606          240/  7/  8   N/A
NORTHPORT PIER   1640   33     200/  2/  6 1018.6F
SISTER BAY LKSHO 1608   33     220/  7/  8   N/A
CHAMBERS ISLAND  1640   34     160/  5/  9 1017.9F
MENOMINEE LKSHOR 1630   32     180/ 10/ 13 1017.9F
$$




USA.gov is the U.S. government's official web portal to all federal, state and local government web resources and services.